Observations for Trim Market St
| Time | AQI | Temp °C | Hum % | Pres Pa | CO μg/m³ | H₂S μg/m³ | NO μg/m³ | NO₂ μg/m³ | O₃ μg/m³ | SO₂ μg/m³ | PM1 μg/m³ | PM2.5 μg/m³ | PM10 μg/m³ |
|---|---|---|---|---|---|---|---|---|---|---|---|---|---|
| Friday 21 August 2026 | |||||||||||||
| 14:01 | 2 | 29.1 | 28 | 65,868 | 0 | 5.69 | 1.13 | 35.06 | 107.55 | 0 | 0 | 3.39 | 3.73 |
| 14:00 | 2 | 29.3 | 28 | 65,862 | 0 | 0.24 | 0.94 | 20.46 | 126.99 | 0 | 0.71 | 3.96 | 4.36 |
| 13:54 | 2 | 31 | 27 | 66,048 | 0 | 0 | 1.14 | 3.79 | 65.19 | 0 | 0 | 3.44 | 3.79 |
| 13:53 | 2 | 31.2 | 27 | 66,113 | 0 | 0 | 1.16 | 16.02 | 80.11 | 0 | 0 | 3.44 | 3.78 |
| 13:51 | 2 | 31.7 | 27 | 66,149 | 0 | 0 | 1.1 | 11.32 | 78.87 | 0 | 0 | 2.9 | 3.19 |
| 13:50 | 2 | 31.9 | 27 | 66,175 | 0 | 0 | 1.11 | 20.52 | 87.25 | 0 | 0 | 2.9 | 3.19 |
| 13:41 | 2 | 33.9 | 26 | 66,282 | 0 | 0 | 1.25 | 13.53 | 75.65 | 0 | 0 | 2.93 | 3.22 |
| 13:40 | 2 | 34 | 27 | 66,258 | 0.12 | 0 | 1.29 | 22.18 | 70.18 | 0 | 0 | 2.91 | 3.2 |
| 13:39 | 2 | 33.9 | 27 | 66,278 | 0.11 | 0 | 1.25 | 23.52 | 88.2 | 0 | 0 | 2.91 | 3.2 |
| 13:38 | 2 | 33.8 | 27 | 66,250 | 0.09 | 0 | 1.21 | 28.58 | 87.96 | 0 | 0 | 2.9 | 3.19 |
| 13:37 | 2 | 33.6 | 27 | 66,204 | 0.07 | 0 | 1.2 | 28.27 | 94.14 | 0 | 0 | 2.89 | 3.18 |
| 13:36 | 2 | 33.4 | 27 | 66,178 | 0.06 | 0 | 1.22 | 32.31 | 97.45 | 0 | 0 | 2.88 | 3.16 |
| 13:35 | 2 | 33.1 | 28 | 66,175 | 0 | 0 | 1.22 | 33.67 | 97.61 | 0 | 0 | 2.87 | 3.16 |
| 13:34 | 2 | 32.9 | 28 | 66,151 | 0 | 0 | 1.31 | 26.31 | 91 | 0 | 0 | 2.86 | 3.15 |
| 13:33 | 2 | 32.6 | 28 | 66,149 | 0.17 | 0 | 1.26 | 25.93 | 95.52 | 0 | 0 | 2.85 | 3.14 |
| 13:32 | 2 | 32.4 | 28 | 66,117 | 0 | 0 | 1.26 | 20.1 | 78.27 | 0 | 0 | 2.84 | 3.13 |
| 13:31 | 2 | 32.2 | 29 | 66,109 | 0 | 0 | 1.27 | 38.76 | 106.46 | 0 | 0 | 2.83 | 3.11 |
| 13:30 | 2 | 31.9 | 29 | 66,100 | 0 | 0 | 1.27 | 15.03 | 78.85 | 0 | 0 | 2.81 | 3.09 |
| 13:29 | 2 | 31.7 | 29 | 66,096 | 0 | 0 | 1.23 | 33.42 | 106.38 | 0 | 0 | 2.8 | 3.08 |
| 13:28 | 2 | 31.5 | 30 | 66,056 | 0 | 0 | 1.26 | 17.93 | 76.35 | 0 | 0 | 2.77 | 3.04 |